When you browse on this site, cookies collect data to enhance your experience and personalize the content and advertising you see.
Visit our Privacy Policy to learn more. By continuing to use the site, you agree to this use of cookies and data.
  • In Österreich
  • Länderverzeichnis
  • Für 7 Tage
  • Wassertemperatur
  • Satellitenkarten
  • Wetterkarte
  • News
  • Widgets
  • user-avatar
    Anmelden

    Stündliche Wetter Chipata

    Heute, 11 Dezember, Dienstag

    Zeit Temperatur Niederschläge Wind Luftdruck Luftfeuchtigkeit
    00:00 +21°C° 0 mm 1 m/S 678 mmHg 84%
    01:00 +21°C° 0 mm 1 m/S 678 mmHg 83%
    02:00 +20°C° 0 mm 1 m/S 677 mmHg 82%
    03:00 +20°C° 0 mm 1 m/S 677 mmHg 82%
    04:00 +20°C° 0 mm 1 m/S 677 mmHg 83%
    05:00 +20°C° 0 mm 1 m/S 677 mmHg 83%
    06:00 +22°C° 0 mm 1 m/S 678 mmHg 78%
    07:00 +24°C° 0 mm 1 m/S 679 mmHg 72%
    08:00 +25°C° 0 mm 1 m/S 679 mmHg 67%
    09:00 +26°C° 0.5 mm 1 m/S 679 mmHg 65%
    10:00 +27°C° 0.5 mm 1 m/S 679 mmHg 63%
    11:00 +28°C° 0.5 mm 1 m/S 679 mmHg 61%
    12:00 +29°C° 1.2 mm 1 m/S 678 mmHg 61%
    13:00 +29°C° 1.2 mm 1 m/S 678 mmHg 60%
    14:00 +30°C° 1.2 mm 1 m/S 677 mmHg 60%
    15:00 +29°C° 2.4 mm 1 m/S 677 mmHg 66%
    16:00 +27°C° 2.4 mm 1 m/S 676 mmHg 73%
    17:00 +26°C° 2.4 mm 1 m/S 676 mmHg 79%
    18:00 +25°C° 1.7 mm 1 m/S 676 mmHg 82%
    19:00 +24°C° 1.7 mm 2 m/S 677 mmHg 85%
    20:00 +23°C° 1.7 mm 2 m/S 677 mmHg 88%
    21:00 +23°C° 0.1 mm 2 m/S 677 mmHg 89%
    22:00 +23°C° 0.1 mm 2 m/S 678 mmHg 89%
    23:00 +23°C° 0.1 mm 1 m/S 678 mmHg 90%

    Morgen, 12 Dezember, Mittwoch

    Zeit Temperatur Niederschläge Wind Luftdruck Luftfeuchtigkeit
    00:00 +22°C° 0.2 mm 1 m/S 677 mmHg 90%
    01:00 +22°C° 0.2 mm 1 m/S 677 mmHg 90%
    02:00 +22°C° 0.2 mm 1 m/S 677 mmHg 89%
    03:00 +22°C° 0.5 mm 1 m/S 677 mmHg 90%
    04:00 +22°C° 0.5 mm 1 m/S 677 mmHg 91%
    05:00 +22°C° 0.5 mm 1 m/S 677 mmHg 91%
    06:00 +22°C° 0.6 mm 1 m/S 678 mmHg 90%
    07:00 +23°C° 0.6 mm 1 m/S 678 mmHg 88%
    08:00 +23°C° 0.6 mm 2 m/S 679 mmHg 86%
    09:00 +24°C° 1.1 mm 2 m/S 679 mmHg 83%
    10:00 +25°C° 1.1 mm 2 m/S 679 mmHg 80%
    11:00 +26°C° 1.1 mm 2 m/S 679 mmHg 77%
    12:00 +26°C° 1.4 mm 2 m/S 678 mmHg 77%
    13:00 +26°C° 1.4 mm 2 m/S 678 mmHg 77%
    14:00 +26°C° 1.4 mm 2 m/S 677 mmHg 77%
    15:00 +26°C° 1 mm 1 m/S 677 mmHg 79%
    16:00 +25°C° 1 mm 1 m/S 677 mmHg 82%
    17:00 +23°C° 1 mm 0 m/S 677 mmHg 84%
    18:00 +24°C° 0.4 mm 1 m/S 677 mmHg 86%
    19:00 +23°C° 0.4 mm 1 m/S 678 mmHg 87%
    20:00 +23°C° 0.4 mm 1 m/S 678 mmHg 89%
    21:00 +22°C° 0.4 mm 1 m/S 678 mmHg 90%
    22:00 +22°C° 0.4 mm 1 m/S 679 mmHg 91%
    23:00 +22°C° 0.4 mm 1 m/S 679 mmHg 92%

    übermorgen, 13 Dezember, Donnerstag

    Zeit Temperatur Niederschläge Wind Luftdruck Luftfeuchtigkeit
    00:00 +22°C° 0.2 mm 1 m/S 678 mmHg 92%
    01:00 +22°C° 0.2 mm 1 m/S 678 mmHg 93%
    02:00 +21°C° 0.2 mm 1 m/S 677 mmHg 93%
    03:00 +21°C° 0.2 mm 1 m/S 678 mmHg 93%
    04:00 +21°C° 0.2 mm 1 m/S 678 mmHg 93%
    05:00 +21°C° 0.2 mm 1 m/S 678 mmHg 93%
    06:00 +21°C° 0.4 mm 2 m/S 679 mmHg 91%
    07:00 +21°C° 0.4 mm 2 m/S 679 mmHg 89%
    08:00 +23°C° 0.4 mm 2 m/S 680 mmHg 86%
    09:00 +24°C° 0.4 mm 3 m/S 680 mmHg 83%
    10:00 +24°C° 0.4 mm 3 m/S 680 mmHg 80%
    11:00 +25°C° 0.4 mm 3 m/S 679 mmHg 76%
    12:00 +26°C° 0.1 mm 3 m/S 679 mmHg 74%
    13:00 +26°C° 0.1 mm 2 m/S 678 mmHg 71%
    14:00 +27°C° 0.1 mm 2 m/S 678 mmHg 69%
    15:00 +27°C° 0.2 mm 2 m/S 678 mmHg 71%
    16:00 +26°C° 0.2 mm 2 m/S 678 mmHg 72%
    17:00 +26°C° 0.2 mm 1 m/S 678 mmHg 74%
    18:00 +25°C° 0.2 mm 1 m/S 678 mmHg 79%
    19:00 +24°C° 0.2 mm 1 m/S 678 mmHg 83%
    20:00 +23°C° 0.2 mm 1 m/S 679 mmHg 87%
    21:00 +23°C° 0 mm 1 m/S 679 mmHg 89%
    22:00 +22°C° 0 mm 1 m/S 679 mmHg 91%
    23:00 +22°C° 0 mm 1 m/S 679 mmHg 93%

    14 Dezember, Freitag

    Zeit Temperatur Niederschläge Wind Luftdruck Luftfeuchtigkeit
    00:00 +22°C° 0.1 mm 1 m/S 679 mmHg 92%
    01:00 +22°C° 0.1 mm 1 m/S 678 mmHg 92%
    02:00 +22°C° 0.1 mm 1 m/S 678 mmHg 92%
    03:00 +22°C° 0.3 mm 1 m/S 678 mmHg 92%
    04:00 +21°C° 0.3 mm 1 m/S 678 mmHg 92%
    05:00 +21°C° 0.3 mm 1 m/S 678 mmHg 93%
    06:00 +22°C° 0.3 mm 1 m/S 679 mmHg 91%
    07:00 +23°C° 0.3 mm 1 m/S 680 mmHg 89%
    08:00 +23°C° 0.3 mm 1 m/S 680 mmHg 87%
    09:00 +25°C° 0.2 mm 1 m/S 680 mmHg 77%
    10:00 +28°C° 0.2 mm 1 m/S 680 mmHg 68%
    11:00 +30°C° 0.2 mm 1 m/S 680 mmHg 58%
    12:00 +30°C° 0.8 mm 1 m/S 680 mmHg 57%
    13:00 +31°C° 0.8 mm 1 m/S 679 mmHg 55%
    14:00 +31°C° 0.8 mm 1 m/S 678 mmHg 53%
    15:00 +30°C° 1.9 mm 1 m/S 678 mmHg 62%
    16:00 +28°C° 1.9 mm 1 m/S 678 mmHg 70%
    17:00 +26°C° 1.9 mm 1 m/S 677 mmHg 78%
    18:00 +25°C° 0.4 mm 1 m/S 678 mmHg 81%
    19:00 +24°C° 0.4 mm 2 m/S 678 mmHg 83%
    20:00 +24°C° 0.4 mm 2 m/S 679 mmHg 85%
    21:00 +23°C° 0 mm 2 m/S 679 mmHg 86%
    22:00 +23°C° 0 mm 2 m/S 679 mmHg 86%
    23:00 +23°C° 0 mm 1 m/S 679 mmHg 87%

    15 Dezember, Samstag

    Zeit Temperatur Niederschläge Wind Luftdruck Luftfeuchtigkeit
    00:00 +22°C° 0 mm 1 m/S 679 mmHg 87%
    01:00 +22°C° 0 mm 1 m/S 678 mmHg 88%
    02:00 +22°C° 0 mm 1 m/S 678 mmHg 89%
    03:00 +22°C° 0 mm 1 m/S 678 mmHg 89%
    04:00 +22°C° 0 mm 1 m/S 678 mmHg 89%
    05:00 +22°C° 0 mm 1 m/S 679 mmHg 89%
    06:00 +23°C° 0 mm 1 m/S 679 mmHg 84%
    07:00 +24°C° 0 mm 2 m/S 680 mmHg 78%
    08:00 +25°C° 0 mm 2 m/S 681 mmHg 72%
    09:00 +27°C° 0 mm 2 m/S 681 mmHg 65%
    10:00 +29°C° 0 mm 2 m/S 680 mmHg 57%
    11:00 +31°C° 0 mm 2 m/S 680 mmHg 50%
    12:00 +31°C° 0.3 mm 2 m/S 680 mmHg 50%
    13:00 +31°C° 0.3 mm 2 m/S 679 mmHg 51%
    14:00 +31°C° 0.3 mm 2 m/S 678 mmHg 51%
    15:00 +30°C° 0.9 mm 2 m/S 678 mmHg 58%
    16:00 +29°C° 0.9 mm 2 m/S 678 mmHg 64%
    17:00 +28°C° 0.9 mm 2 m/S 678 mmHg 71%
    18:00 +26°C° 0.4 mm 2 m/S 678 mmHg 75%
    19:00 +25°C° 0.4 mm 1 m/S 678 mmHg 78%
    20:00 +24°C° 0.4 mm 1 m/S 679 mmHg 82%
    21:00 +24°C° 0 mm 1 m/S 679 mmHg 83%
    22:00 +23°C° 0 mm 2 m/S 679 mmHg 85%
    23:00 +23°C° 0 mm 2 m/S 679 mmHg 86%

    16 Dezember, Sonntag

    Zeit Temperatur Niederschläge Wind Luftdruck Luftfeuchtigkeit
    00:00 +22°C° 0 mm 1 m/S 678 mmHg 87%
    01:00 +22°C° 0 mm 1 m/S 678 mmHg 88%
    02:00 +22°C° 0 mm 1 m/S 677 mmHg 89%
    03:00 +22°C° 0 mm 1 m/S 678 mmHg 89%
    04:00 +21°C° 0 mm 1 m/S 678 mmHg 90%
    05:00 +21°C° 0 mm 1 m/S 678 mmHg 90%
    06:00 +23°C° 0 mm 1 m/S 679 mmHg 83%
    07:00 +25°C° 0 mm 1 m/S 679 mmHg 77%
    08:00 +26°C° 0 mm 2 m/S 680 mmHg 70%
    09:00 +28°C° 0.1 mm 2 m/S 680 mmHg 63%
    10:00 +30°C° 0.1 mm 2 m/S 680 mmHg 56%
    11:00 +31°C° 0.1 mm 2 m/S 680 mmHg 50%
    12:00 +31°C° 0.3 mm 1 m/S 679 mmHg 50%
    13:00 +31°C° 0.3 mm 1 m/S 678 mmHg 51%
    14:00 +31°C° 0.3 mm 1 m/S 678 mmHg 52%
    15:00 +30°C° 0.5 mm 1 m/S 677 mmHg 58%
    16:00 +29°C° 0.5 mm 2 m/S 677 mmHg 63%
    17:00 +27°C° 0.5 mm 2 m/S 677 mmHg 69%
    18:00 +26°C° 0.3 mm 2 m/S 677 mmHg 73%
    19:00 +25°C° 0.3 mm 2 m/S 678 mmHg 77%
    20:00 +24°C° 0.3 mm 2 m/S 678 mmHg 81%
    21:00 +24°C° 0.1 mm 2 m/S 678 mmHg 81%
    22:00 +24°C° 0.1 mm 2 m/S 678 mmHg 82%
    23:00 +23°C° 0.1 mm 2 m/S 678 mmHg 82%
    Mehr zeigen